GSAT0222 (GALILEO 26)

Last updated on Sat Sep 05 2026 00:02:48 GMT+0000 (Coordinated Universal Time)

1 43565U 18060B 26246.30036111 -.00000083 00000+0 00000+0 0 9993 2 43565 57.1416 339.6760 0004472 240.3690 119.6291 1.70475935 50548
UTC large
Height (km)
Speed (km/s)
/
Latitude / Longitude
Inclination (degrees)
Orbital Period (minutes)
Azimuth
Elevation
Range (km)
Doppler Factor

Next 0 passes for location: London (51.5072 / 0.1276)

No passes found over London.
GSAT0222 (GALILEO 26)